Index of /20260501/WXO-DD/model_gdps/15km/00/180
Name Last modified Size Description
Parent Directory -
20260501T00Z_MSC_GDPS_AbsoluteVorticity_IsbL-0200_LatLon0.15_PT180H.grib2 2026-05-01 04:36 1.2M
20260501T00Z_MSC_GDPS_AbsoluteVorticity_IsbL-0250_LatLon0.15_PT180H.grib2 2026-05-01 04:36 1.3M
20260501T00Z_MSC_GDPS_AbsoluteVorticity_IsbL-0500_LatLon0.15_PT180H.grib2 2026-05-01 04:36 1.2M
20260501T00Z_MSC_GDPS_AbsoluteVorticity_IsbL-0700_LatLon0.15_PT180H.grib2 2026-05-01 04:36 1.3M
20260501T00Z_MSC_GDPS_AbsoluteVorticity_IsbL-0850_LatLon0.15_PT180H.grib2 2026-05-01 04:36 1.7M
20260501T00Z_MSC_GDPS_AirTemp-Max_AGL-2m_LatLon0.15_PT180H.grib2 2026-05-01 04:36 743K
20260501T00Z_MSC_GDPS_AirTemp-Min_AGL-2m_LatLon0.15_PT180H.grib2 2026-05-01 04:36 790K
20260501T00Z_MSC_GDPS_AirTemp_AGL-120m_LatLon0.15_PT180H.grib2 2026-05-01 04:36 907K
20260501T00Z_MSC_GDPS_AirTemp_AGL-2m_LatLon0.15_PT180H.grib2 2026-05-01 04:36 1.0M
20260501T00Z_MSC_GDPS_AirTemp_AGL-40m_LatLon0.15_PT180H.grib2 2026-05-01 04:36 808K
20260501T00Z_MSC_GDPS_AirTemp_AGL-80m_LatLon0.15_PT180H.grib2 2026-05-01 04:36 798K
20260501T00Z_MSC_GDPS_AirTemp_IsbL-0001_LatLon0.15_PT180H.grib2 2026-05-01 04:36 666K
20260501T00Z_MSC_GDPS_AirTemp_IsbL-0005_LatLon0.15_PT180H.grib2 2026-05-01 04:36 696K
20260501T00Z_MSC_GDPS_AirTemp_IsbL-0010_LatLon0.15_PT180H.grib2 2026-05-01 04:36 697K
20260501T00Z_MSC_GDPS_AirTemp_IsbL-0020_LatLon0.15_PT180H.grib2 2026-05-01 04:36 789K
20260501T00Z_MSC_GDPS_AirTemp_IsbL-0030_LatLon0.15_PT180H.grib2 2026-05-01 04:36 836K
20260501T00Z_MSC_GDPS_AirTemp_IsbL-0050_LatLon0.15_PT180H.grib2 2026-05-01 04:36 804K
20260501T00Z_MSC_GDPS_AirTemp_IsbL-0100_LatLon0.15_PT180H.grib2 2026-05-01 04:36 966K
20260501T00Z_MSC_GDPS_AirTemp_IsbL-0150_LatLon0.15_PT180H.grib2 2026-05-01 04:36 1.0M
20260501T00Z_MSC_GDPS_AirTemp_IsbL-0175_LatLon0.15_PT180H.grib2 2026-05-01 04:36 961K
20260501T00Z_MSC_GDPS_AirTemp_IsbL-0200_LatLon0.15_PT180H.grib2 2026-05-01 04:36 1.0M
20260501T00Z_MSC_GDPS_AirTemp_IsbL-0225_LatLon0.15_PT180H.grib2 2026-05-01 04:36 971K
20260501T00Z_MSC_GDPS_AirTemp_IsbL-0250_LatLon0.15_PT180H.grib2 2026-05-01 04:36 1.0M
20260501T00Z_MSC_GDPS_AirTemp_IsbL-0275_LatLon0.15_PT180H.grib2 2026-05-01 04:36 1.0M
20260501T00Z_MSC_GDPS_AirTemp_IsbL-0300_LatLon0.15_PT180H.grib2 2026-05-01 04:36 951K
20260501T00Z_MSC_GDPS_AirTemp_IsbL-0350_LatLon0.15_PT180H.grib2 2026-05-01 04:36 933K
20260501T00Z_MSC_GDPS_AirTemp_IsbL-0400_LatLon0.15_PT180H.grib2 2026-05-01 04:36 945K
20260501T00Z_MSC_GDPS_AirTemp_IsbL-0450_LatLon0.15_PT180H.grib2 2026-05-01 04:36 970K
20260501T00Z_MSC_GDPS_AirTemp_IsbL-0500_LatLon0.15_PT180H.grib2 2026-05-01 04:36 1.0M
20260501T00Z_MSC_GDPS_AirTemp_IsbL-0550_LatLon0.15_PT180H.grib2 2026-05-01 04:36 808K
20260501T00Z_MSC_GDPS_AirTemp_IsbL-0600_LatLon0.15_PT180H.grib2 2026-05-01 04:36 900K
20260501T00Z_MSC_GDPS_AirTemp_IsbL-0650_LatLon0.15_PT180H.grib2 2026-05-01 04:36 929K
20260501T00Z_MSC_GDPS_AirTemp_IsbL-0700_LatLon0.15_PT180H.grib2 2026-05-01 04:36 964K
20260501T00Z_MSC_GDPS_AirTemp_IsbL-0750_LatLon0.15_PT180H.grib2 2026-05-01 04:36 1.0M
20260501T00Z_MSC_GDPS_AirTemp_IsbL-0800_LatLon0.15_PT180H.grib2 2026-05-01 04:36 1.1M
20260501T00Z_MSC_GDPS_AirTemp_IsbL-0850_LatLon0.15_PT180H.grib2 2026-05-01 04:36 1.1M
20260501T00Z_MSC_GDPS_AirTemp_IsbL-0875_LatLon0.15_PT180H.grib2 2026-05-01 04:36 1.2M
20260501T00Z_MSC_GDPS_AirTemp_IsbL-0900_LatLon0.15_PT180H.grib2 2026-05-01 04:36 1.2M
20260501T00Z_MSC_GDPS_AirTemp_IsbL-0925_LatLon0.15_PT180H.grib2 2026-05-01 04:36 1.1M
20260501T00Z_MSC_GDPS_AirTemp_IsbL-0950_LatLon0.15_PT180H.grib2 2026-05-01 04:36 1.1M
20260501T00Z_MSC_GDPS_AirTemp_IsbL-0970_LatLon0.15_PT180H.grib2 2026-05-01 04:36 1.2M
20260501T00Z_MSC_GDPS_AirTemp_IsbL-0985_LatLon0.15_PT180H.grib2 2026-05-01 04:36 1.1M
20260501T00Z_MSC_GDPS_AirTemp_IsbL-1000_LatLon0.15_PT180H.grib2 2026-05-01 04:36 1.1M
20260501T00Z_MSC_GDPS_AirTemp_IsbL-1015_LatLon0.15_PT180H.grib2 2026-05-01 04:36 1.1M
20260501T00Z_MSC_GDPS_Albedo_Sfc_LatLon0.15_PT180H.grib2 2026-05-01 04:36 240K
20260501T00Z_MSC_GDPS_CAPE_Sfc_LatLon0.15_PT180H.grib2 2026-05-01 04:36 3.8M
20260501T00Z_MSC_GDPS_CIN_Sfc_LatLon0.15_PT180H.grib2 2026-05-01 04:36 2.9M
20260501T00Z_MSC_GDPS_CloudWater_EAtm_LatLon0.15_PT180H.grib2 2026-05-01 04:36 543K
20260501T00Z_MSC_GDPS_ConvectivePrecip-Accum_Sfc_LatLon0.15_PT180H.grib2 2026-05-01 04:36 3.8M
20260501T00Z_MSC_GDPS_DewPointDepression_AGL-2m_LatLon0.15_PT180H.grib2 2026-05-01 04:36 762K
20260501T00Z_MSC_GDPS_DewPointDepression_IsbL-0010_LatLon0.15_PT180H.grib2 2026-05-01 04:36 73K
20260501T00Z_MSC_GDPS_DewPointDepression_IsbL-0020_LatLon0.15_PT180H.grib2 2026-05-01 04:36 69K
20260501T00Z_MSC_GDPS_DewPointDepression_IsbL-0030_LatLon0.15_PT180H.grib2 2026-05-01 04:36 89K
20260501T00Z_MSC_GDPS_DewPointDepression_IsbL-0050_LatLon0.15_PT180H.grib2 2026-05-01 04:36 381K
20260501T00Z_MSC_GDPS_DewPointDepression_IsbL-0100_LatLon0.15_PT180H.grib2 2026-05-01 04:36 397K
20260501T00Z_MSC_GDPS_DewPointDepression_IsbL-0150_LatLon0.15_PT180H.grib2 2026-05-01 04:36 498K
20260501T00Z_MSC_GDPS_DewPointDepression_IsbL-0175_LatLon0.15_PT180H.grib2 2026-05-01 04:36 590K
20260501T00Z_MSC_GDPS_DewPointDepression_IsbL-0200_LatLon0.15_PT180H.grib2 2026-05-01 04:36 693K
20260501T00Z_MSC_GDPS_DewPointDepression_IsbL-0225_LatLon0.15_PT180H.grib2 2026-05-01 04:36 769K
20260501T00Z_MSC_GDPS_DewPointDepression_IsbL-0250_LatLon0.15_PT180H.grib2 2026-05-01 04:36 865K
20260501T00Z_MSC_GDPS_DewPointDepression_IsbL-0275_LatLon0.15_PT180H.grib2 2026-05-01 04:36 891K
20260501T00Z_MSC_GDPS_DewPointDepression_IsbL-0300_LatLon0.15_PT180H.grib2 2026-05-01 04:36 932K
20260501T00Z_MSC_GDPS_DewPointDepression_IsbL-0350_LatLon0.15_PT180H.grib2 2026-05-01 04:36 956K
20260501T00Z_MSC_GDPS_DewPointDepression_IsbL-0400_LatLon0.15_PT180H.grib2 2026-05-01 04:36 1.0M
20260501T00Z_MSC_GDPS_DewPointDepression_IsbL-0450_LatLon0.15_PT180H.grib2 2026-05-01 04:36 1.0M
20260501T00Z_MSC_GDPS_DewPointDepression_IsbL-0500_LatLon0.15_PT180H.grib2 2026-05-01 04:36 1.0M
20260501T00Z_MSC_GDPS_DewPointDepression_IsbL-0550_LatLon0.15_PT180H.grib2 2026-05-01 04:36 1.0M
20260501T00Z_MSC_GDPS_DewPointDepression_IsbL-0600_LatLon0.15_PT180H.grib2 2026-05-01 04:36 1.1M
20260501T00Z_MSC_GDPS_DewPointDepression_IsbL-0650_LatLon0.15_PT180H.grib2 2026-05-01 04:36 1.1M
20260501T00Z_MSC_GDPS_DewPointDepression_IsbL-0700_LatLon0.15_PT180H.grib2 2026-05-01 04:36 1.1M
20260501T00Z_MSC_GDPS_DewPointDepression_IsbL-0750_LatLon0.15_PT180H.grib2 2026-05-01 04:36 1.1M
20260501T00Z_MSC_GDPS_DewPointDepression_IsbL-0800_LatLon0.15_PT180H.grib2 2026-05-01 04:36 1.2M
20260501T00Z_MSC_GDPS_DewPointDepression_IsbL-0850_LatLon0.15_PT180H.grib2 2026-05-01 04:36 1.2M
20260501T00Z_MSC_GDPS_DewPointDepression_IsbL-0875_LatLon0.15_PT180H.grib2 2026-05-01 04:36 1.1M
20260501T00Z_MSC_GDPS_DewPointDepression_IsbL-0900_LatLon0.15_PT180H.grib2 2026-05-01 04:36 1.1M
20260501T00Z_MSC_GDPS_DewPointDepression_IsbL-0925_LatLon0.15_PT180H.grib2 2026-05-01 04:36 1.0M
20260501T00Z_MSC_GDPS_DewPointDepression_IsbL-0950_LatLon0.15_PT180H.grib2 2026-05-01 04:36 1.0M
20260501T00Z_MSC_GDPS_DewPointDepression_IsbL-0970_LatLon0.15_PT180H.grib2 2026-05-01 04:36 1.0M
20260501T00Z_MSC_GDPS_DewPointDepression_IsbL-0985_LatLon0.15_PT180H.grib2 2026-05-01 04:36 1.0M
20260501T00Z_MSC_GDPS_DewPointDepression_IsbL-1000_LatLon0.15_PT180H.grib2 2026-05-01 04:36 972K
20260501T00Z_MSC_GDPS_DewPointDepression_IsbL-1015_LatLon0.15_PT180H.grib2 2026-05-01 04:36 914K
20260501T00Z_MSC_GDPS_DewPoint_AGL-2m_LatLon0.15_PT180H.grib2 2026-05-01 04:36 613K
20260501T00Z_MSC_GDPS_DownwardLongwaveRadiationFlux-Accum_Sfc_LatLon0.15_PT180H.grib2 2026-05-01 04:36 652K
20260501T00Z_MSC_GDPS_DownwardShortwaveRadiationFlux-Accum_NTAtm_LatLon0.15_PT180H.grib2 2026-05-01 04:36 244K
20260501T00Z_MSC_GDPS_DownwardShortwaveRadiationFlux-Accum_Sfc_LatLon0.15_PT180H.grib2 2026-05-01 04:36 838K
20260501T00Z_MSC_GDPS_FreezingRain-Accum12h_Sfc_LatLon0.15_PT180H.grib2 2026-05-01 04:36 103K
20260501T00Z_MSC_GDPS_FreezingRain-Accum24h_Sfc_LatLon0.15_PT180H.grib2 2026-05-01 04:36 170K
20260501T00Z_MSC_GDPS_FreezingRain-Accum6h_Sfc_LatLon0.15_PT180H.grib2 2026-05-01 04:36 83K
20260501T00Z_MSC_GDPS_FreezingRain-Accum_Sfc_LatLon0.15_PT180H.grib2 2026-05-01 04:36 446K
20260501T00Z_MSC_GDPS_GeopotentialHeight_IsbL-0001_LatLon0.15_PT180H.grib2 2026-05-01 04:36 440K
20260501T00Z_MSC_GDPS_GeopotentialHeight_IsbL-0005_LatLon0.15_PT180H.grib2 2026-05-01 04:36 497K
20260501T00Z_MSC_GDPS_GeopotentialHeight_IsbL-0010_LatLon0.15_PT180H.grib2 2026-05-01 04:36 478K
20260501T00Z_MSC_GDPS_GeopotentialHeight_IsbL-0020_LatLon0.15_PT180H.grib2 2026-05-01 04:36 415K
20260501T00Z_MSC_GDPS_GeopotentialHeight_IsbL-0030_LatLon0.15_PT180H.grib2 2026-05-01 04:36 420K
20260501T00Z_MSC_GDPS_GeopotentialHeight_IsbL-0050_LatLon0.15_PT180H.grib2 2026-05-01 04:36 572K
20260501T00Z_MSC_GDPS_GeopotentialHeight_IsbL-0100_LatLon0.15_PT180H.grib2 2026-05-01 04:36 609K
20260501T00Z_MSC_GDPS_GeopotentialHeight_IsbL-0150_LatLon0.15_PT180H.grib2 2026-05-01 04:36 627K
20260501T00Z_MSC_GDPS_GeopotentialHeight_IsbL-0175_LatLon0.15_PT180H.grib2 2026-05-01 04:36 631K
20260501T00Z_MSC_GDPS_GeopotentialHeight_IsbL-0200_LatLon0.15_PT180H.grib2 2026-05-01 04:36 635K
20260501T00Z_MSC_GDPS_GeopotentialHeight_IsbL-0225_LatLon0.15_PT180H.grib2 2026-05-01 04:36 640K
20260501T00Z_MSC_GDPS_GeopotentialHeight_IsbL-0250_LatLon0.15_PT180H.grib2 2026-05-01 04:36 640K
20260501T00Z_MSC_GDPS_GeopotentialHeight_IsbL-0275_LatLon0.15_PT180H.grib2 2026-05-01 04:36 643K
20260501T00Z_MSC_GDPS_GeopotentialHeight_IsbL-0300_LatLon0.15_PT180H.grib2 2026-05-01 04:36 644K
20260501T00Z_MSC_GDPS_GeopotentialHeight_IsbL-0350_LatLon0.15_PT180H.grib2 2026-05-01 04:36 634K
20260501T00Z_MSC_GDPS_GeopotentialHeight_IsbL-0400_LatLon0.15_PT180H.grib2 2026-05-01 04:36 624K
20260501T00Z_MSC_GDPS_GeopotentialHeight_IsbL-0450_LatLon0.15_PT180H.grib2 2026-05-01 04:36 612K
20260501T00Z_MSC_GDPS_GeopotentialHeight_IsbL-0500_LatLon0.15_PT180H.grib2 2026-05-01 04:36 532K
20260501T00Z_MSC_GDPS_GeopotentialHeight_IsbL-0550_LatLon0.15_PT180H.grib2 2026-05-01 04:36 525K
20260501T00Z_MSC_GDPS_GeopotentialHeight_IsbL-0600_LatLon0.15_PT180H.grib2 2026-05-01 04:36 523K
20260501T00Z_MSC_GDPS_GeopotentialHeight_IsbL-0650_LatLon0.15_PT180H.grib2 2026-05-01 04:36 691K
20260501T00Z_MSC_GDPS_GeopotentialHeight_IsbL-0700_LatLon0.15_PT180H.grib2 2026-05-01 04:36 692K
20260501T00Z_MSC_GDPS_GeopotentialHeight_IsbL-0750_LatLon0.15_PT180H.grib2 2026-05-01 04:36 693K
20260501T00Z_MSC_GDPS_GeopotentialHeight_IsbL-0800_LatLon0.15_PT180H.grib2 2026-05-01 04:36 709K
20260501T00Z_MSC_GDPS_GeopotentialHeight_IsbL-0850_LatLon0.15_PT180H.grib2 2026-05-01 04:36 716K
20260501T00Z_MSC_GDPS_GeopotentialHeight_IsbL-0875_LatLon0.15_PT180H.grib2 2026-05-01 04:36 723K
20260501T00Z_MSC_GDPS_GeopotentialHeight_IsbL-0900_LatLon0.15_PT180H.grib2 2026-05-01 04:36 728K
20260501T00Z_MSC_GDPS_GeopotentialHeight_IsbL-0925_LatLon0.15_PT180H.grib2 2026-05-01 04:36 736K
20260501T00Z_MSC_GDPS_GeopotentialHeight_IsbL-0950_LatLon0.15_PT180H.grib2 2026-05-01 04:36 740K
20260501T00Z_MSC_GDPS_GeopotentialHeight_IsbL-0970_LatLon0.15_PT180H.grib2 2026-05-01 04:36 753K
20260501T00Z_MSC_GDPS_GeopotentialHeight_IsbL-0985_LatLon0.15_PT180H.grib2 2026-05-01 04:36 768K
20260501T00Z_MSC_GDPS_GeopotentialHeight_IsbL-1000_LatLon0.15_PT180H.grib2 2026-05-01 04:36 788K
20260501T00Z_MSC_GDPS_GeopotentialHeight_IsbL-1015_LatLon0.15_PT180H.grib2 2026-05-01 04:36 810K
20260501T00Z_MSC_GDPS_Humidex_Sfc_LatLon0.15_PT180H.grib2 2026-05-01 04:36 5.3M
20260501T00Z_MSC_GDPS_IcePellets-Accum12h_Sfc_LatLon0.15_PT180H.grib2 2026-05-01 04:36 28K
20260501T00Z_MSC_GDPS_IcePellets-Accum24h_Sfc_LatLon0.15_PT180H.grib2 2026-05-01 04:36 45K
20260501T00Z_MSC_GDPS_IcePellets-Accum6h_Sfc_LatLon0.15_PT180H.grib2 2026-05-01 04:36 17K
20260501T00Z_MSC_GDPS_IcePellets-Accum_Sfc_LatLon0.15_PT180H.grib2 2026-05-01 04:36 164K
20260501T00Z_MSC_GDPS_KIndex_Sfc_LatLon0.15_PT180H.grib2 2026-05-01 04:36 6.5M
20260501T00Z_MSC_GDPS_LatentHeatNetFlux_Sfc_LatLon0.15_PT180H.grib2 2026-05-01 04:36 556K
20260501T00Z_MSC_GDPS_LiftedIndex-MU-VT_IsbL-0500_LatLon0.15_PT180H.grib2 2026-05-01 04:36 5.4M
20260501T00Z_MSC_GDPS_NetLongwaveRadiationFlux-Accum_Sfc_LatLon0.15_PT180H.grib2 2026-05-01 04:36 874K
20260501T00Z_MSC_GDPS_NetShortwaveRadiationFlux-Accum_Sfc_LatLon0.15_PT180H.grib2 2026-05-01 04:36 834K
20260501T00Z_MSC_GDPS_O3MixingRatio_Sfc_LatLon0.15_PT180H.grib2 2026-05-01 04:51 1.9M
20260501T00Z_MSC_GDPS_O3_EAtm_LatLon0.15_PT180H.grib2 2026-05-01 04:51 2.4M
20260501T00Z_MSC_GDPS_PlanetaryBoundaryLayerHeight_Sfc_LatLon0.15_PT180H.grib2 2026-05-01 04:36 2.5M
20260501T00Z_MSC_GDPS_Precip-Accum12h_Sfc_LatLon0.15_PT180H.grib2 2026-05-01 04:36 4.1M
20260501T00Z_MSC_GDPS_Precip-Accum24h_Sfc_LatLon0.15_PT180H.grib2 2026-05-01 04:36 4.3M
20260501T00Z_MSC_GDPS_Precip-Accum6h_Sfc_LatLon0.15_PT180H.grib2 2026-05-01 04:36 3.6M
20260501T00Z_MSC_GDPS_Precip-Accum_Sfc_LatLon0.15_PT180H.grib2 2026-05-01 04:36 5.0M
20260501T00Z_MSC_GDPS_PrecipRate_Sfc_LatLon0.15_PT180H.grib2 2026-05-01 04:36 3.0M
20260501T00Z_MSC_GDPS_PrecipType-Instant_Sfc_LatLon0.15_PT180H.grib2 2026-05-01 04:36 1.6M
20260501T00Z_MSC_GDPS_Pressure_MSL_LatLon0.15_PT180H.grib2 2026-05-01 04:36 724K
20260501T00Z_MSC_GDPS_Pressure_PVU-1.5_LatLon0.15_PT180H.grib2 2026-05-01 04:36 5.8M
20260501T00Z_MSC_GDPS_Pressure_PVU-1_LatLon0.15_PT180H.grib2 2026-05-01 04:36 6.0M
20260501T00Z_MSC_GDPS_Pressure_PVU-2_LatLon0.15_PT180H.grib2 2026-05-01 04:36 5.6M
20260501T00Z_MSC_GDPS_Pressure_Sfc_LatLon0.15_PT180H.grib2 2026-05-01 04:36 1.1M
20260501T00Z_MSC_GDPS_RadiativeTemp_Sfc_LatLon0.15_PT180H.grib2 2026-05-01 04:36 500K
20260501T00Z_MSC_GDPS_Rain-Accum12h_Sfc_LatLon0.15_PT180H.grib2 2026-05-01 04:36 2.8M
20260501T00Z_MSC_GDPS_Rain-Accum24h_Sfc_LatLon0.15_PT180H.grib2 2026-05-01 04:36 3.1M
20260501T00Z_MSC_GDPS_Rain-Accum6h_Sfc_LatLon0.15_PT180H.grib2 2026-05-01 04:36 2.4M
20260501T00Z_MSC_GDPS_Rain-Accum_Sfc_LatLon0.15_PT180H.grib2 2026-05-01 04:36 4.0M
20260501T00Z_MSC_GDPS_RelativeHumidity_AGL-2m_LatLon0.15_PT180H.grib2 2026-05-01 04:36 1.1M
20260501T00Z_MSC_GDPS_RelativeHumidity_IsbL-0010_LatLon0.15_PT180H.grib2 2026-05-01 04:36 199K
20260501T00Z_MSC_GDPS_RelativeHumidity_IsbL-0020_LatLon0.15_PT180H.grib2 2026-05-01 04:36 160K
20260501T00Z_MSC_GDPS_RelativeHumidity_IsbL-0030_LatLon0.15_PT180H.grib2 2026-05-01 04:36 182K
20260501T00Z_MSC_GDPS_RelativeHumidity_IsbL-0050_LatLon0.15_PT180H.grib2 2026-05-01 04:36 333K
20260501T00Z_MSC_GDPS_RelativeHumidity_IsbL-0100_LatLon0.15_PT180H.grib2 2026-05-01 04:36 497K
20260501T00Z_MSC_GDPS_RelativeHumidity_IsbL-0150_LatLon0.15_PT180H.grib2 2026-05-01 04:36 682K
20260501T00Z_MSC_GDPS_RelativeHumidity_IsbL-0175_LatLon0.15_PT180H.grib2 2026-05-01 04:36 606K
20260501T00Z_MSC_GDPS_RelativeHumidity_IsbL-0200_LatLon0.15_PT180H.grib2 2026-05-01 04:36 715K
20260501T00Z_MSC_GDPS_RelativeHumidity_IsbL-0225_LatLon0.15_PT180H.grib2 2026-05-01 04:36 797K
20260501T00Z_MSC_GDPS_RelativeHumidity_IsbL-0250_LatLon0.15_PT180H.grib2 2026-05-01 04:36 867K
20260501T00Z_MSC_GDPS_RelativeHumidity_IsbL-0275_LatLon0.15_PT180H.grib2 2026-05-01 04:36 894K
20260501T00Z_MSC_GDPS_RelativeHumidity_IsbL-0300_LatLon0.15_PT180H.grib2 2026-05-01 04:36 936K
20260501T00Z_MSC_GDPS_RelativeHumidity_IsbL-0350_LatLon0.15_PT180H.grib2 2026-05-01 04:36 948K
20260501T00Z_MSC_GDPS_RelativeHumidity_IsbL-0400_LatLon0.15_PT180H.grib2 2026-05-01 04:36 1.0M
20260501T00Z_MSC_GDPS_RelativeHumidity_IsbL-0450_LatLon0.15_PT180H.grib2 2026-05-01 04:36 1.0M
20260501T00Z_MSC_GDPS_RelativeHumidity_IsbL-0500_LatLon0.15_PT180H.grib2 2026-05-01 04:36 1.0M
20260501T00Z_MSC_GDPS_RelativeHumidity_IsbL-0550_LatLon0.15_PT180H.grib2 2026-05-01 04:36 1.0M
20260501T00Z_MSC_GDPS_RelativeHumidity_IsbL-0600_LatLon0.15_PT180H.grib2 2026-05-01 04:36 1.0M
20260501T00Z_MSC_GDPS_RelativeHumidity_IsbL-0650_LatLon0.15_PT180H.grib2 2026-05-01 04:36 1.1M
20260501T00Z_MSC_GDPS_RelativeHumidity_IsbL-0700_LatLon0.15_PT180H.grib2 2026-05-01 04:36 1.1M
20260501T00Z_MSC_GDPS_RelativeHumidity_IsbL-0750_LatLon0.15_PT180H.grib2 2026-05-01 04:36 1.1M
20260501T00Z_MSC_GDPS_RelativeHumidity_IsbL-0800_LatLon0.15_PT180H.grib2 2026-05-01 04:36 1.2M
20260501T00Z_MSC_GDPS_RelativeHumidity_IsbL-0850_LatLon0.15_PT180H.grib2 2026-05-01 04:36 1.3M
20260501T00Z_MSC_GDPS_RelativeHumidity_IsbL-0875_LatLon0.15_PT180H.grib2 2026-05-01 04:36 1.3M
20260501T00Z_MSC_GDPS_RelativeHumidity_IsbL-0900_LatLon0.15_PT180H.grib2 2026-05-01 04:36 1.2M
20260501T00Z_MSC_GDPS_RelativeHumidity_IsbL-0925_LatLon0.15_PT180H.grib2 2026-05-01 04:36 1.2M
20260501T00Z_MSC_GDPS_RelativeHumidity_IsbL-0950_LatLon0.15_PT180H.grib2 2026-05-01 04:36 1.2M
20260501T00Z_MSC_GDPS_RelativeHumidity_IsbL-0970_LatLon0.15_PT180H.grib2 2026-05-01 04:36 1.2M
20260501T00Z_MSC_GDPS_RelativeHumidity_IsbL-0985_LatLon0.15_PT180H.grib2 2026-05-01 04:36 1.1M
20260501T00Z_MSC_GDPS_RelativeHumidity_IsbL-1000_LatLon0.15_PT180H.grib2 2026-05-01 04:36 1.2M
20260501T00Z_MSC_GDPS_RelativeHumidity_IsbL-1015_LatLon0.15_PT180H.grib2 2026-05-01 04:36 1.0M
20260501T00Z_MSC_GDPS_RelativeVorticity_IsbL-0200_LatLon0.15_PT180H.grib2 2026-05-01 04:36 1.2M
20260501T00Z_MSC_GDPS_RelativeVorticity_IsbL-0250_LatLon0.15_PT180H.grib2 2026-05-01 04:36 1.3M
20260501T00Z_MSC_GDPS_RelativeVorticity_IsbL-0500_LatLon0.15_PT180H.grib2 2026-05-01 04:36 1.2M
20260501T00Z_MSC_GDPS_RelativeVorticity_IsbL-0700_LatLon0.15_PT180H.grib2 2026-05-01 04:36 1.3M
20260501T00Z_MSC_GDPS_RelativeVorticity_IsbL-0850_LatLon0.15_PT180H.grib2 2026-05-01 04:36 1.6M
20260501T00Z_MSC_GDPS_Runoff-Accum_Sfc_LatLon0.15_PT180H.grib2 2026-05-01 04:36 127K
20260501T00Z_MSC_GDPS_SensibleHeatNetFlux_Sfc_LatLon0.15_PT180H.grib2 2026-05-01 04:36 488K
20260501T00Z_MSC_GDPS_ShowalterIndex_IsbL-0500_LatLon0.15_PT180H.grib2 2026-05-01 04:36 6.2M
20260501T00Z_MSC_GDPS_Snow-Accum12h_Sfc_LatLon0.15_PT180H.grib2 2026-05-01 04:36 1.5M
20260501T00Z_MSC_GDPS_Snow-Accum24h_Sfc_LatLon0.15_PT180H.grib2 2026-05-01 04:36 1.6M
20260501T00Z_MSC_GDPS_Snow-Accum6h_Sfc_LatLon0.15_PT180H.grib2 2026-05-01 04:36 1.4M
20260501T00Z_MSC_GDPS_Snow-Accum_Sfc_LatLon0.15_PT180H.grib2 2026-05-01 04:36 2.1M
20260501T00Z_MSC_GDPS_SnowDensity_Sfc_LatLon0.15_PT180H.grib2 2026-05-01 04:36 259K
20260501T00Z_MSC_GDPS_SnowDepth_Sfc_LatLon0.15_PT180H.grib2 2026-05-01 04:36 1.7M
20260501T00Z_MSC_GDPS_SoilTemp_DBS-0to10cm_LatLon0.15_PT180H.grib2 2026-05-01 04:36 518K
20260501T00Z_MSC_GDPS_SoilTemp_Sfc_LatLon0.15_PT180H.grib2 2026-05-01 04:36 594K
20260501T00Z_MSC_GDPS_SoilVolumetricIceContent_Sfc_LatLon0.15_PT180H.grib2 2026-05-01 04:36 183K
20260501T00Z_MSC_GDPS_SoilVolumetricWaterContent_DBS-0to10cm_LatLon0.15_PT180H.grib2 2026-05-01 04:36 596K
20260501T00Z_MSC_GDPS_SoilVolumetricWaterContent_DBS-0to1cm_LatLon0.15_PT180H.grib2 2026-05-01 04:36 650K
20260501T00Z_MSC_GDPS_SpecificHumidity_AGL-120m_LatLon0.15_PT180H.grib2 2026-05-01 04:36 1.1M
20260501T00Z_MSC_GDPS_SpecificHumidity_AGL-2m_LatLon0.15_PT180H.grib2 2026-05-01 04:36 1.2M
20260501T00Z_MSC_GDPS_SpecificHumidity_AGL-40m_LatLon0.15_PT180H.grib2 2026-05-01 04:36 1.1M
20260501T00Z_MSC_GDPS_SpecificHumidity_AGL-80m_LatLon0.15_PT180H.grib2 2026-05-01 04:36 1.1M
20260501T00Z_MSC_GDPS_SpecificHumidity_IsbL-0001_LatLon0.15_PT180H.grib2 2026-05-01 04:36 1.2M
20260501T00Z_MSC_GDPS_SpecificHumidity_IsbL-0005_LatLon0.15_PT180H.grib2 2026-05-01 04:36 1.1M
20260501T00Z_MSC_GDPS_SpecificHumidity_IsbL-0010_LatLon0.15_PT180H.grib2 2026-05-01 04:36 1.2M
20260501T00Z_MSC_GDPS_SpecificHumidity_IsbL-0020_LatLon0.15_PT180H.grib2 2026-05-01 04:36 1.2M
20260501T00Z_MSC_GDPS_SpecificHumidity_IsbL-0030_LatLon0.15_PT180H.grib2 2026-05-01 04:36 1.4M
20260501T00Z_MSC_GDPS_SpecificHumidity_IsbL-0050_LatLon0.15_PT180H.grib2 2026-05-01 04:36 1.5M
20260501T00Z_MSC_GDPS_SpecificHumidity_IsbL-0100_LatLon0.15_PT180H.grib2 2026-05-01 04:36 1.2M
20260501T00Z_MSC_GDPS_SpecificHumidity_IsbL-0150_LatLon0.15_PT180H.grib2 2026-05-01 04:36 1.3M
20260501T00Z_MSC_GDPS_SpecificHumidity_IsbL-0175_LatLon0.15_PT180H.grib2 2026-05-01 04:36 1.3M
20260501T00Z_MSC_GDPS_SpecificHumidity_IsbL-0200_LatLon0.15_PT180H.grib2 2026-05-01 04:36 1.3M
20260501T00Z_MSC_GDPS_SpecificHumidity_IsbL-0225_LatLon0.15_PT180H.grib2 2026-05-01 04:36 1.3M
20260501T00Z_MSC_GDPS_SpecificHumidity_IsbL-0250_LatLon0.15_PT180H.grib2 2026-05-01 04:36 1.2M
20260501T00Z_MSC_GDPS_SpecificHumidity_IsbL-0275_LatLon0.15_PT180H.grib2 2026-05-01 04:36 1.3M
20260501T00Z_MSC_GDPS_SpecificHumidity_IsbL-0300_LatLon0.15_PT180H.grib2 2026-05-01 04:36 1.2M
20260501T00Z_MSC_GDPS_SpecificHumidity_IsbL-0350_LatLon0.15_PT180H.grib2 2026-05-01 04:36 1.2M
20260501T00Z_MSC_GDPS_SpecificHumidity_IsbL-0400_LatLon0.15_PT180H.grib2 2026-05-01 04:36 1.5M
20260501T00Z_MSC_GDPS_SpecificHumidity_IsbL-0450_LatLon0.15_PT180H.grib2 2026-05-01 04:36 1.3M
20260501T00Z_MSC_GDPS_SpecificHumidity_IsbL-0500_LatLon0.15_PT180H.grib2 2026-05-01 04:36 1.5M
20260501T00Z_MSC_GDPS_SpecificHumidity_IsbL-0550_LatLon0.15_PT180H.grib2 2026-05-01 04:36 1.6M
20260501T00Z_MSC_GDPS_SpecificHumidity_IsbL-0600_LatLon0.15_PT180H.grib2 2026-05-01 04:36 1.4M
20260501T00Z_MSC_GDPS_SpecificHumidity_IsbL-0650_LatLon0.15_PT180H.grib2 2026-05-01 04:36 1.5M
20260501T00Z_MSC_GDPS_SpecificHumidity_IsbL-0700_LatLon0.15_PT180H.grib2 2026-05-01 04:36 1.6M
20260501T00Z_MSC_GDPS_SpecificHumidity_IsbL-0750_LatLon0.15_PT180H.grib2 2026-05-01 04:36 1.8M
20260501T00Z_MSC_GDPS_SpecificHumidity_IsbL-0800_LatLon0.15_PT180H.grib2 2026-05-01 04:36 1.9M
20260501T00Z_MSC_GDPS_SpecificHumidity_IsbL-0850_LatLon0.15_PT180H.grib2 2026-05-01 04:36 2.0M
20260501T00Z_MSC_GDPS_SpecificHumidity_IsbL-0875_LatLon0.15_PT180H.grib2 2026-05-01 04:36 1.6M
20260501T00Z_MSC_GDPS_SpecificHumidity_IsbL-0900_LatLon0.15_PT180H.grib2 2026-05-01 04:36 1.6M
20260501T00Z_MSC_GDPS_SpecificHumidity_IsbL-0925_LatLon0.15_PT180H.grib2 2026-05-01 04:36 1.6M
20260501T00Z_MSC_GDPS_SpecificHumidity_IsbL-0950_LatLon0.15_PT180H.grib2 2026-05-01 04:36 1.6M
20260501T00Z_MSC_GDPS_SpecificHumidity_IsbL-0970_LatLon0.15_PT180H.grib2 2026-05-01 04:36 1.6M
20260501T00Z_MSC_GDPS_SpecificHumidity_IsbL-0985_LatLon0.15_PT180H.grib2 2026-05-01 04:36 1.5M
20260501T00Z_MSC_GDPS_SpecificHumidity_IsbL-1000_LatLon0.15_PT180H.grib2 2026-05-01 04:36 1.5M
20260501T00Z_MSC_GDPS_SpecificHumidity_IsbL-1015_LatLon0.15_PT180H.grib2 2026-05-01 04:36 1.5M
20260501T00Z_MSC_GDPS_SpecificHumidity_Sfc_LatLon0.15_PT180H.grib2 2026-05-01 04:36 688K
20260501T00Z_MSC_GDPS_Thickness_IsbL-0850to0700_LatLon0.15_PT180H.grib2 2026-05-01 04:36 471K
20260501T00Z_MSC_GDPS_Thickness_IsbL-1000to0500_LatLon0.15_PT180H.grib2 2026-05-01 04:36 375K
20260501T00Z_MSC_GDPS_Thickness_IsbL-1000to0850_LatLon0.15_PT180H.grib2 2026-05-01 04:36 492K
20260501T00Z_MSC_GDPS_TotalCloudCover_Sfc_LatLon0.15_PT180H.grib2 2026-05-01 04:36 831K
20260501T00Z_MSC_GDPS_TotalTotalsIndex_Sfc_LatLon0.15_PT180H.grib2 2026-05-01 04:36 6.2M
20260501T00Z_MSC_GDPS_UVIndex-ClearSky_Sfc_LatLon0.15_PT180H.grib2 2026-05-01 04:51 1.0M
20260501T00Z_MSC_GDPS_UVIndex_Sfc_LatLon0.15_PT180H.grib2 2026-05-01 04:51 1.5M
20260501T00Z_MSC_GDPS_UpwardLongwaveRadiationFlux_NTAtm_LatLon0.15_PT180H.grib2 2026-05-01 04:36 846K
20260501T00Z_MSC_GDPS_VerticalVelocity_IsbL-0200_LatLon0.15_PT180H.grib2 2026-05-01 04:36 941K
20260501T00Z_MSC_GDPS_VerticalVelocity_IsbL-0250_LatLon0.15_PT180H.grib2 2026-05-01 04:36 1.0M
20260501T00Z_MSC_GDPS_VerticalVelocity_IsbL-0500_LatLon0.15_PT180H.grib2 2026-05-01 04:36 1.3M
20260501T00Z_MSC_GDPS_VerticalVelocity_IsbL-0600_LatLon0.15_PT180H.grib2 2026-05-01 04:36 1.1M
20260501T00Z_MSC_GDPS_VerticalVelocity_IsbL-0700_LatLon0.15_PT180H.grib2 2026-05-01 04:36 1.1M
20260501T00Z_MSC_GDPS_VerticalVelocity_IsbL-0850_LatLon0.15_PT180H.grib2 2026-05-01 04:36 1.6M
20260501T00Z_MSC_GDPS_WindChill_Sfc_LatLon0.15_PT180H.grib2 2026-05-01 04:36 5.3M
20260501T00Z_MSC_GDPS_WindDir_AGL-10m_LatLon0.15_PT180H.grib2 2026-05-01 04:36 1.3M
20260501T00Z_MSC_GDPS_WindDir_AGL-120m_LatLon0.15_PT180H.grib2 2026-05-01 04:36 1.3M
20260501T00Z_MSC_GDPS_WindDir_AGL-40m_LatLon0.15_PT180H.grib2 2026-05-01 04:36 1.4M
20260501T00Z_MSC_GDPS_WindDir_AGL-80m_LatLon0.15_PT180H.grib2 2026-05-01 04:36 1.4M
20260501T00Z_MSC_GDPS_WindDir_IsbL-0001_LatLon0.15_PT180H.grib2 2026-05-01 04:36 652K
20260501T00Z_MSC_GDPS_WindDir_IsbL-0005_LatLon0.15_PT180H.grib2 2026-05-01 04:36 814K
20260501T00Z_MSC_GDPS_WindDir_IsbL-0010_LatLon0.15_PT180H.grib2 2026-05-01 04:36 834K
20260501T00Z_MSC_GDPS_WindDir_IsbL-0020_LatLon0.15_PT180H.grib2 2026-05-01 04:36 941K
20260501T00Z_MSC_GDPS_WindDir_IsbL-0030_LatLon0.15_PT180H.grib2 2026-05-01 04:36 928K
20260501T00Z_MSC_GDPS_WindDir_IsbL-0050_LatLon0.15_PT180H.grib2 2026-05-01 04:36 945K
20260501T00Z_MSC_GDPS_WindDir_IsbL-0100_LatLon0.15_PT180H.grib2 2026-05-01 04:36 1.0M
20260501T00Z_MSC_GDPS_WindDir_IsbL-0150_LatLon0.15_PT180H.grib2 2026-05-01 04:36 1.0M
20260501T00Z_MSC_GDPS_WindDir_IsbL-0175_LatLon0.15_PT180H.grib2 2026-05-01 04:36 1.1M
20260501T00Z_MSC_GDPS_WindDir_IsbL-0200_LatLon0.15_PT180H.grib2 2026-05-01 04:36 1.1M
20260501T00Z_MSC_GDPS_WindDir_IsbL-0225_LatLon0.15_PT180H.grib2 2026-05-01 04:36 1.1M
20260501T00Z_MSC_GDPS_WindDir_IsbL-0250_LatLon0.15_PT180H.grib2 2026-05-01 04:36 1.1M
20260501T00Z_MSC_GDPS_WindDir_IsbL-0275_LatLon0.15_PT180H.grib2 2026-05-01 04:36 1.2M
20260501T00Z_MSC_GDPS_WindDir_IsbL-0300_LatLon0.15_PT180H.grib2 2026-05-01 04:36 1.2M
20260501T00Z_MSC_GDPS_WindDir_IsbL-0350_LatLon0.15_PT180H.grib2 2026-05-01 04:36 1.2M
20260501T00Z_MSC_GDPS_WindDir_IsbL-0400_LatLon0.15_PT180H.grib2 2026-05-01 04:36 1.3M
20260501T00Z_MSC_GDPS_WindDir_IsbL-0450_LatLon0.15_PT180H.grib2 2026-05-01 04:36 1.3M
20260501T00Z_MSC_GDPS_WindDir_IsbL-0500_LatLon0.15_PT180H.grib2 2026-05-01 04:36 1.4M
20260501T00Z_MSC_GDPS_WindDir_IsbL-0550_LatLon0.15_PT180H.grib2 2026-05-01 04:36 1.4M
20260501T00Z_MSC_GDPS_WindDir_IsbL-0600_LatLon0.15_PT180H.grib2 2026-05-01 04:36 1.5M
20260501T00Z_MSC_GDPS_WindDir_IsbL-0650_LatLon0.15_PT180H.grib2 2026-05-01 04:36 1.5M
20260501T00Z_MSC_GDPS_WindDir_IsbL-0700_LatLon0.15_PT180H.grib2 2026-05-01 04:36 1.6M
20260501T00Z_MSC_GDPS_WindDir_IsbL-0750_LatLon0.15_PT180H.grib2 2026-05-01 04:36 1.7M
20260501T00Z_MSC_GDPS_WindDir_IsbL-0800_LatLon0.15_PT180H.grib2 2026-05-01 04:36 1.8M
20260501T00Z_MSC_GDPS_WindDir_IsbL-0850_LatLon0.15_PT180H.grib2 2026-05-01 04:36 1.9M
20260501T00Z_MSC_GDPS_WindDir_IsbL-0875_LatLon0.15_PT180H.grib2 2026-05-01 04:36 1.9M
20260501T00Z_MSC_GDPS_WindDir_IsbL-0900_LatLon0.15_PT180H.grib2 2026-05-01 04:36 2.0M
20260501T00Z_MSC_GDPS_WindDir_IsbL-0925_LatLon0.15_PT180H.grib2 2026-05-01 04:36 2.0M
20260501T00Z_MSC_GDPS_WindDir_IsbL-0950_LatLon0.15_PT180H.grib2 2026-05-01 04:36 2.0M
20260501T00Z_MSC_GDPS_WindDir_IsbL-0970_LatLon0.15_PT180H.grib2 2026-05-01 04:36 2.0M
20260501T00Z_MSC_GDPS_WindDir_IsbL-0985_LatLon0.15_PT180H.grib2 2026-05-01 04:36 2.0M
20260501T00Z_MSC_GDPS_WindDir_IsbL-1000_LatLon0.15_PT180H.grib2 2026-05-01 04:36 2.0M
20260501T00Z_MSC_GDPS_WindDir_IsbL-1015_LatLon0.15_PT180H.grib2 2026-05-01 04:36 2.0M
20260501T00Z_MSC_GDPS_WindGust-Max_AGL-10m_LatLon0.15_PT180H.grib2 2026-05-01 04:36 2.2M
20260501T00Z_MSC_GDPS_WindGust-Min_AGL-10m_LatLon0.15_PT180H.grib2 2026-05-01 04:36 2.2M
20260501T00Z_MSC_GDPS_WindGust_AGL-10m_LatLon0.15_PT180H.grib2 2026-05-01 04:36 2.2M
20260501T00Z_MSC_GDPS_WindSpeed_AGL-10m_LatLon0.15_PT180H.grib2 2026-05-01 04:36 1.1M
20260501T00Z_MSC_GDPS_WindSpeed_AGL-120m_LatLon0.15_PT180H.grib2 2026-05-01 04:36 1.2M
20260501T00Z_MSC_GDPS_WindSpeed_AGL-40m_LatLon0.15_PT180H.grib2 2026-05-01 04:36 1.2M
20260501T00Z_MSC_GDPS_WindSpeed_AGL-80m_LatLon0.15_PT180H.grib2 2026-05-01 04:36 1.2M
20260501T00Z_MSC_GDPS_WindSpeed_IsbL-0001_LatLon0.15_PT180H.grib2 2026-05-01 04:36 505K
20260501T00Z_MSC_GDPS_WindSpeed_IsbL-0005_LatLon0.15_PT180H.grib2 2026-05-01 04:36 696K
20260501T00Z_MSC_GDPS_WindSpeed_IsbL-0010_LatLon0.15_PT180H.grib2 2026-05-01 04:36 627K
20260501T00Z_MSC_GDPS_WindSpeed_IsbL-0020_LatLon0.15_PT180H.grib2 2026-05-01 04:36 663K
20260501T00Z_MSC_GDPS_WindSpeed_IsbL-0030_LatLon0.15_PT180H.grib2 2026-05-01 04:36 668K
20260501T00Z_MSC_GDPS_WindSpeed_IsbL-0050_LatLon0.15_PT180H.grib2 2026-05-01 04:36 894K
20260501T00Z_MSC_GDPS_WindSpeed_IsbL-0100_LatLon0.15_PT180H.grib2 2026-05-01 04:36 1.1M
20260501T00Z_MSC_GDPS_WindSpeed_IsbL-0150_LatLon0.15_PT180H.grib2 2026-05-01 04:36 945K
20260501T00Z_MSC_GDPS_WindSpeed_IsbL-0175_LatLon0.15_PT180H.grib2 2026-05-01 04:36 1.0M
20260501T00Z_MSC_GDPS_WindSpeed_IsbL-0200_LatLon0.15_PT180H.grib2 2026-05-01 04:36 1.1M
20260501T00Z_MSC_GDPS_WindSpeed_IsbL-0225_LatLon0.15_PT180H.grib2 2026-05-01 04:36 1.1M
20260501T00Z_MSC_GDPS_WindSpeed_IsbL-0250_LatLon0.15_PT180H.grib2 2026-05-01 04:36 1.1M
20260501T00Z_MSC_GDPS_WindSpeed_IsbL-0275_LatLon0.15_PT180H.grib2 2026-05-01 04:36 1.1M
20260501T00Z_MSC_GDPS_WindSpeed_IsbL-0300_LatLon0.15_PT180H.grib2 2026-05-01 04:36 1.1M
20260501T00Z_MSC_GDPS_WindSpeed_IsbL-0350_LatLon0.15_PT180H.grib2 2026-05-01 04:36 1.1M
20260501T00Z_MSC_GDPS_WindSpeed_IsbL-0400_LatLon0.15_PT180H.grib2 2026-05-01 04:36 1.1M
20260501T00Z_MSC_GDPS_WindSpeed_IsbL-0450_LatLon0.15_PT180H.grib2 2026-05-01 04:36 1.1M
20260501T00Z_MSC_GDPS_WindSpeed_IsbL-0500_LatLon0.15_PT180H.grib2 2026-05-01 04:36 1.1M
20260501T00Z_MSC_GDPS_WindSpeed_IsbL-0550_LatLon0.15_PT180H.grib2 2026-05-01 04:36 1.1M
20260501T00Z_MSC_GDPS_WindSpeed_IsbL-0600_LatLon0.15_PT180H.grib2 2026-05-01 04:36 1.4M
20260501T00Z_MSC_GDPS_WindSpeed_IsbL-0650_LatLon0.15_PT180H.grib2 2026-05-01 04:36 1.5M
20260501T00Z_MSC_GDPS_WindSpeed_IsbL-0700_LatLon0.15_PT180H.grib2 2026-05-01 04:36 1.5M
20260501T00Z_MSC_GDPS_WindSpeed_IsbL-0750_LatLon0.15_PT180H.grib2 2026-05-01 04:36 1.6M
20260501T00Z_MSC_GDPS_WindSpeed_IsbL-0800_LatLon0.15_PT180H.grib2 2026-05-01 04:36 1.7M
20260501T00Z_MSC_GDPS_WindSpeed_IsbL-0850_LatLon0.15_PT180H.grib2 2026-05-01 04:36 1.7M
20260501T00Z_MSC_GDPS_WindSpeed_IsbL-0875_LatLon0.15_PT180H.grib2 2026-05-01 04:36 1.8M
20260501T00Z_MSC_GDPS_WindSpeed_IsbL-0900_LatLon0.15_PT180H.grib2 2026-05-01 04:36 1.8M
20260501T00Z_MSC_GDPS_WindSpeed_IsbL-0925_LatLon0.15_PT180H.grib2 2026-05-01 04:36 1.9M
20260501T00Z_MSC_GDPS_WindSpeed_IsbL-0950_LatLon0.15_PT180H.grib2 2026-05-01 04:36 1.9M
20260501T00Z_MSC_GDPS_WindSpeed_IsbL-0970_LatLon0.15_PT180H.grib2 2026-05-01 04:36 1.9M
20260501T00Z_MSC_GDPS_WindSpeed_IsbL-0985_LatLon0.15_PT180H.grib2 2026-05-01 04:36 1.9M
20260501T00Z_MSC_GDPS_WindSpeed_IsbL-1000_LatLon0.15_PT180H.grib2 2026-05-01 04:36 1.8M
20260501T00Z_MSC_GDPS_WindSpeed_IsbL-1015_LatLon0.15_PT180H.grib2 2026-05-01 04:36 1.8M
20260501T00Z_MSC_GDPS_WindU_AGL-10m_LatLon0.15_PT180H.grib2 2026-05-01 04:36 1.3M
20260501T00Z_MSC_GDPS_WindU_AGL-120m_LatLon0.15_PT180H.grib2 2026-05-01 04:36 1.0M
20260501T00Z_MSC_GDPS_WindU_AGL-40m_LatLon0.15_PT180H.grib2 2026-05-01 04:36 958K
20260501T00Z_MSC_GDPS_WindU_AGL-80m_LatLon0.15_PT180H.grib2 2026-05-01 04:36 1.0M
20260501T00Z_MSC_GDPS_WindU_IsbL-0001_LatLon0.15_PT180H.grib2 2026-05-01 04:36 593K
20260501T00Z_MSC_GDPS_WindU_IsbL-0005_LatLon0.15_PT180H.grib2 2026-05-01 04:36 694K
20260501T00Z_MSC_GDPS_WindU_IsbL-0010_LatLon0.15_PT180H.grib2 2026-05-01 04:36 703K
20260501T00Z_MSC_GDPS_WindU_IsbL-0020_LatLon0.15_PT180H.grib2 2026-05-01 04:36 731K
20260501T00Z_MSC_GDPS_WindU_IsbL-0030_LatLon0.15_PT180H.grib2 2026-05-01 04:36 736K
20260501T00Z_MSC_GDPS_WindU_IsbL-0050_LatLon0.15_PT180H.grib2 2026-05-01 04:36 761K
20260501T00Z_MSC_GDPS_WindU_IsbL-0100_LatLon0.15_PT180H.grib2 2026-05-01 04:36 923K
20260501T00Z_MSC_GDPS_WindU_IsbL-0150_LatLon0.15_PT180H.grib2 2026-05-01 04:36 1.0M
20260501T00Z_MSC_GDPS_WindU_IsbL-0175_LatLon0.15_PT180H.grib2 2026-05-01 04:36 1.0M
20260501T00Z_MSC_GDPS_WindU_IsbL-0200_LatLon0.15_PT180H.grib2 2026-05-01 04:36 1.0M
20260501T00Z_MSC_GDPS_WindU_IsbL-0225_LatLon0.15_PT180H.grib2 2026-05-01 04:36 850K
20260501T00Z_MSC_GDPS_WindU_IsbL-0250_LatLon0.15_PT180H.grib2 2026-05-01 04:36 852K
20260501T00Z_MSC_GDPS_WindU_IsbL-0275_LatLon0.15_PT180H.grib2 2026-05-01 04:36 881K
20260501T00Z_MSC_GDPS_WindU_IsbL-0300_LatLon0.15_PT180H.grib2 2026-05-01 04:36 875K
20260501T00Z_MSC_GDPS_WindU_IsbL-0350_LatLon0.15_PT180H.grib2 2026-05-01 04:36 891K
20260501T00Z_MSC_GDPS_WindU_IsbL-0400_LatLon0.15_PT180H.grib2 2026-05-01 04:36 1.1M
20260501T00Z_MSC_GDPS_WindU_IsbL-0450_LatLon0.15_PT180H.grib2 2026-05-01 04:36 1.1M
20260501T00Z_MSC_GDPS_WindU_IsbL-0500_LatLon0.15_PT180H.grib2 2026-05-01 04:36 1.1M
20260501T00Z_MSC_GDPS_WindU_IsbL-0550_LatLon0.15_PT180H.grib2 2026-05-01 04:36 1.1M
20260501T00Z_MSC_GDPS_WindU_IsbL-0600_LatLon0.15_PT180H.grib2 2026-05-01 04:36 1.2M
20260501T00Z_MSC_GDPS_WindU_IsbL-0650_LatLon0.15_PT180H.grib2 2026-05-01 04:36 1.2M
20260501T00Z_MSC_GDPS_WindU_IsbL-0700_LatLon0.15_PT180H.grib2 2026-05-01 04:36 1.2M
20260501T00Z_MSC_GDPS_WindU_IsbL-0750_LatLon0.15_PT180H.grib2 2026-05-01 04:36 1.3M
20260501T00Z_MSC_GDPS_WindU_IsbL-0800_LatLon0.15_PT180H.grib2 2026-05-01 04:36 1.4M
20260501T00Z_MSC_GDPS_WindU_IsbL-0850_LatLon0.15_PT180H.grib2 2026-05-01 04:36 1.4M
20260501T00Z_MSC_GDPS_WindU_IsbL-0875_LatLon0.15_PT180H.grib2 2026-05-01 04:36 1.4M
20260501T00Z_MSC_GDPS_WindU_IsbL-0900_LatLon0.15_PT180H.grib2 2026-05-01 04:36 1.5M
20260501T00Z_MSC_GDPS_WindU_IsbL-0925_LatLon0.15_PT180H.grib2 2026-05-01 04:36 1.4M
20260501T00Z_MSC_GDPS_WindU_IsbL-0950_LatLon0.15_PT180H.grib2 2026-05-01 04:36 1.4M
20260501T00Z_MSC_GDPS_WindU_IsbL-0970_LatLon0.15_PT180H.grib2 2026-05-01 04:36 1.4M
20260501T00Z_MSC_GDPS_WindU_IsbL-0985_LatLon0.15_PT180H.grib2 2026-05-01 04:36 1.4M
20260501T00Z_MSC_GDPS_WindU_IsbL-1000_LatLon0.15_PT180H.grib2 2026-05-01 04:36 1.4M
20260501T00Z_MSC_GDPS_WindU_IsbL-1015_LatLon0.15_PT180H.grib2 2026-05-01 04:36 1.3M
20260501T00Z_MSC_GDPS_WindV_AGL-10m_LatLon0.15_PT180H.grib2 2026-05-01 04:36 1.3M
20260501T00Z_MSC_GDPS_WindV_AGL-120m_LatLon0.15_PT180H.grib2 2026-05-01 04:36 1.0M
20260501T00Z_MSC_GDPS_WindV_AGL-40m_LatLon0.15_PT180H.grib2 2026-05-01 04:36 957K
20260501T00Z_MSC_GDPS_WindV_AGL-80m_LatLon0.15_PT180H.grib2 2026-05-01 04:36 962K
20260501T00Z_MSC_GDPS_WindV_IsbL-0001_LatLon0.15_PT180H.grib2 2026-05-01 04:36 787K
20260501T00Z_MSC_GDPS_WindV_IsbL-0005_LatLon0.15_PT180H.grib2 2026-05-01 04:36 768K
20260501T00Z_MSC_GDPS_WindV_IsbL-0010_LatLon0.15_PT180H.grib2 2026-05-01 04:36 796K
20260501T00Z_MSC_GDPS_WindV_IsbL-0020_LatLon0.15_PT180H.grib2 2026-05-01 04:36 848K
20260501T00Z_MSC_GDPS_WindV_IsbL-0030_LatLon0.15_PT180H.grib2 2026-05-01 04:36 849K
20260501T00Z_MSC_GDPS_WindV_IsbL-0050_LatLon0.15_PT180H.grib2 2026-05-01 04:36 894K
20260501T00Z_MSC_GDPS_WindV_IsbL-0100_LatLon0.15_PT180H.grib2 2026-05-01 04:36 1.1M
20260501T00Z_MSC_GDPS_WindV_IsbL-0150_LatLon0.15_PT180H.grib2 2026-05-01 04:36 1.0M
20260501T00Z_MSC_GDPS_WindV_IsbL-0175_LatLon0.15_PT180H.grib2 2026-05-01 04:36 1.0M
20260501T00Z_MSC_GDPS_WindV_IsbL-0200_LatLon0.15_PT180H.grib2 2026-05-01 04:36 835K
20260501T00Z_MSC_GDPS_WindV_IsbL-0225_LatLon0.15_PT180H.grib2 2026-05-01 04:36 903K
20260501T00Z_MSC_GDPS_WindV_IsbL-0250_LatLon0.15_PT180H.grib2 2026-05-01 04:36 906K
20260501T00Z_MSC_GDPS_WindV_IsbL-0275_LatLon0.15_PT180H.grib2 2026-05-01 04:36 933K
20260501T00Z_MSC_GDPS_WindV_IsbL-0300_LatLon0.15_PT180H.grib2 2026-05-01 04:36 925K
20260501T00Z_MSC_GDPS_WindV_IsbL-0350_LatLon0.15_PT180H.grib2 2026-05-01 04:36 937K
20260501T00Z_MSC_GDPS_WindV_IsbL-0400_LatLon0.15_PT180H.grib2 2026-05-01 04:36 939K
20260501T00Z_MSC_GDPS_WindV_IsbL-0450_LatLon0.15_PT180H.grib2 2026-05-01 04:36 885K
20260501T00Z_MSC_GDPS_WindV_IsbL-0500_LatLon0.15_PT180H.grib2 2026-05-01 04:36 892K
20260501T00Z_MSC_GDPS_WindV_IsbL-0550_LatLon0.15_PT180H.grib2 2026-05-01 04:36 1.1M
20260501T00Z_MSC_GDPS_WindV_IsbL-0600_LatLon0.15_PT180H.grib2 2026-05-01 04:36 1.1M
20260501T00Z_MSC_GDPS_WindV_IsbL-0650_LatLon0.15_PT180H.grib2 2026-05-01 04:36 1.2M
20260501T00Z_MSC_GDPS_WindV_IsbL-0700_LatLon0.15_PT180H.grib2 2026-05-01 04:36 1.2M
20260501T00Z_MSC_GDPS_WindV_IsbL-0750_LatLon0.15_PT180H.grib2 2026-05-01 04:36 1.3M
20260501T00Z_MSC_GDPS_WindV_IsbL-0800_LatLon0.15_PT180H.grib2 2026-05-01 04:36 1.3M
20260501T00Z_MSC_GDPS_WindV_IsbL-0850_LatLon0.15_PT180H.grib2 2026-05-01 04:36 1.4M
20260501T00Z_MSC_GDPS_WindV_IsbL-0875_LatLon0.15_PT180H.grib2 2026-05-01 04:36 1.4M
20260501T00Z_MSC_GDPS_WindV_IsbL-0900_LatLon0.15_PT180H.grib2 2026-05-01 04:36 1.4M
20260501T00Z_MSC_GDPS_WindV_IsbL-0925_LatLon0.15_PT180H.grib2 2026-05-01 04:36 1.4M
20260501T00Z_MSC_GDPS_WindV_IsbL-0950_LatLon0.15_PT180H.grib2 2026-05-01 04:36 1.4M
20260501T00Z_MSC_GDPS_WindV_IsbL-0970_LatLon0.15_PT180H.grib2 2026-05-01 04:36 1.4M
20260501T00Z_MSC_GDPS_WindV_IsbL-0985_LatLon0.15_PT180H.grib2 2026-05-01 04:36 1.4M
20260501T00Z_MSC_GDPS_WindV_IsbL-1000_LatLon0.15_PT180H.grib2 2026-05-01 04:36 1.4M
20260501T00Z_MSC_GDPS_WindV_IsbL-1015_LatLon0.15_PT180H.grib2 2026-05-01 04:36 1.3M